Location: Ch�risy
(50.2331°N, 2.9131°E)
Time: 20:09:37
(UTC+00:00)

SL-24 R/B - Pass Details

Date: 17 January 2021
Orbit: 625 x 1075 km, 98.0° (Epoch: 27 February)

Event Time Altitude Azimuth Distance (km) Brightness Sun altitude
Rises 17:14:44 0° 167° (SSE) 2,899 7.6 -9.0°
Reaches altitude 10° 17:16:53 10° 168° (SSE) 2,000 6.8 -9.3°
Maximum altitude 17:21:11 82° 255° (WSW) 656 4.3 -10.0°
Drops below altitude 10° 17:25:46 10° 345° (NNW) 2,123 6.8 -10.7°
Sets 17:28:05 0° 346° (NNW) 3,095 7.6 -11.0°
